| time (UTC) | temp C | wind direction | speed KPH | gust KPH | rain 1hr cm | rain 24hr cm | rain mn cm | humidity % | barometer mb |
| 20260508071506 | 5 | 247 | 0.0 | 0.0 | 0.00 | 0.00 | 0.00 | 66 | 1005.6 |
| 20260508070003 | 5 | 336 | 0.0 | 0.0 | 0.00 | 0.00 | 0.00 | 66 | 1005.7 |
| 20260508064502 | 5 | 336 | 0.0 | 0.0 | 0.00 | 0.00 | 0.00 | 68 | 1005.6 |
| 20260508063002 | 6 | 336 | 0.0 | 0.0 | 0.00 | 0.00 | 0.00 | 68 | 1005.6 |
| 20260508061604 | 6 | 14 | 0.0 | 0.0 | 0.00 | 0.00 | 0.00 | 64 | 1005.7 |
| 20260508060058 | 6 | 30 | 0.0 | 0.0 | 0.00 | 0.00 | 0.00 | 59 | 1005.9 |
| 20260508054555 | 6 | 334 | 0.0 | 0.0 | 0.00 | 0.00 | 0.00 | 63 | 1005.9 |
| 20260508053051 | 5 | 293 | 0.0 | 0.0 | 0.00 | 0.00 | 0.00 | 74 | 1006.3 |
| 20260508051546 | 6 | 13 | 0.0 | 0.0 | 0.00 | 0.00 | 0.00 | 65 | 1006.4 |
| 20260508050044 | 5 | 60 | 0.0 | 0.0 | 0.00 | 0.00 | 0.00 | 70 | 1006.4 |
| 20260508044541 | 5 | 60 | 0.0 | 0.0 | 0.00 | 0.66 | 0.00 | 73 | 1006.5 |
| 20260508043044 | 5 | 60 | 0.0 | 0.0 | 0.00 | 0.66 | 0.00 | 67 | 1006.7 |
| 20260508041536 | 5 | 57 | 0.0 | 0.0 | 0.00 | 0.66 | 0.00 | 71 | 1006.7 |
| 20260508040032 | 6 | 57 | 0.0 | 0.0 | 0.00 | 0.66 | 0.00 | 66 | 1006.7 |
| 20260508034528 | 6 | 57 | 0.0 | 0.0 | 0.00 | 0.66 | 0.00 | 67 | 1006.6 |
| 20260508033024 | 6 | 57 | 0.0 | 0.0 | 0.00 | 0.66 | 0.00 | 67 | 1006.6 |
| 20260508031522 | 7 | 57 | 0.0 | 0.0 | 0.00 | 0.66 | 0.00 | 67 | 1006.8 |
| 20260508030015 | 7 | 51 | 0.0 | 0.0 | 0.00 | 0.66 | 0.00 | 62 | 1006.7 |
| 20260508024511 | 8 | 51 | 0.0 | 0.0 | 0.00 | 0.69 | 0.00 | 54 | 1006.6 |
| 20260508023007 | 9 | 51 | 0.0 | 0.0 | 0.00 | 0.69 | 0.00 | 52 | 1006.4 |
| 20260508021502 | 10 | 1 | 0.0 | 0.0 | 0.00 | 0.69 | 0.00 | 54 | 1006.1 |
| 20260508020058 | 10 | 340 | 0.0 | 0.0 | 0.00 | 0.69 | 0.00 | 52 | 1006.2 |
| 20260508014555 | 10 | 56 | 0.0 | 0.0 | 0.00 | 0.71 | 0.00 | 49 | 1006.1 |
| 20260508013052 | 11 | 349 | 0.0 | 0.0 | 0.00 | 0.71 | 0.00 | 48 | 1005.8 |
| 20260508011551 | 11 | 338 | 0.0 | 0.0 | 0.00 | 0.71 | 0.00 | 45 | 1005.8 |
| 20260508010050 | 11 | 50 | 0.0 | 0.0 | 0.00 | 0.71 | 0.00 | 45 | 1005.6 |
| 20260508004546 | 12 | 335 | 0.0 | 0.0 | 0.00 | 0.76 | 0.00 | 44 | 1005.2 |
| 20260508003041 | 12 | 10 | 0.0 | 0.0 | 0.00 | 0.76 | 0.00 | 44 | 1004.9 |
| 20260508001539 | 12 | 330 | 0.0 | 0.0 | 0.00 | 0.76 | 0.00 | 42 | 1004.6 |
| 20260508000032 | 13 | 337 | 0.0 | 0.0 | 0.00 | 0.76 | 0.00 | 40 | 1004.5 |
| 20260507234528 | 13 | 333 | 0.0 | 0.0 | 0.00 | 0.76 | 0.00 | 39 | 1004.5 |
| 20260507233034 | 14 | 2 | 0.0 | 0.0 | 0.00 | 0.76 | 0.00 | 38 | 1004.2 |
| 20260507231520 | 15 | 352 | 0.0 | 0.0 | 0.00 | 0.76 | 0.00 | 36 | 1003.9 |
| 20260507230015 | 15 | 18 | 0.0 | 0.0 | 0.00 | 0.76 | 0.00 | 36 | 1003.7 |
| 20260507224512 | 15 | 311 | 0.0 | 0.0 | 0.00 | 0.97 | 0.00 | 36 | 1003.5 |
| 20260507223008 | 15 | 333 | 0.0 | 0.0 | 0.00 | 0.97 | 0.00 | 37 | 1003.3 |
| 20260507221507 | 15 | 328 | 0.0 | 0.0 | 0.00 | 0.97 | 0.00 | 36 | 1003.3 |
| 20260507220058 | 16 | 333 | 0.0 | 0.0 | 0.00 | 0.97 | 0.00 | 35 | 1003.1 |
| 20260507214617 | 16 | 354 | 0.0 | 0.0 | 0.00 | 1.42 | 0.00 | 35 | 1003.1 |
| 20260507213103 | 16 | 307 | 0.0 | 0.0 | 0.00 | 1.42 | 0.00 | 35 | 1003.0 |
| 20260507211558 | 16 | 314 | 0.0 | 0.0 | 0.00 | 1.42 | 0.00 | 35 | 1002.9 |
| 20260507204537 | 16 | 273 | 0.0 | 0.0 | 0.00 | 1.70 | 0.66 | 35 | 1002.7 |
| 20260507203039 | 15 | 236 | 0.0 | 0.0 | 0.00 | 1.70 | 0.66 | 50 | 1002.5 |
| 20260507201529 | 12 | 241 | 0.0 | 0.0 | 0.00 | 1.70 | 0.66 | 71 | 1002.6 |
| 20260507200027 | 12 | 172 | 0.0 | 0.0 | 0.00 | 1.70 | 0.66 | 73 | 1002.7 |
| 20260507194520 | 12 | 218 | 0.0 | 0.0 | 0.00 | 1.78 | 0.66 | 73 | 1002.8 |
| 20260507193016 | 12 | 232 | 0.0 | 0.0 | 0.00 | 1.78 | 0.66 | 71 | 1003.0 |
| 20260507191512 | 13 | 182 | 0.0 | 0.0 | 0.00 | 1.78 | 0.66 | 62 | 1003.0 |
| 20260507190006 | 13 | 214 | 0.0 | 0.0 | 0.00 | 1.78 | 0.66 | 63 | 1003.1 |
| 20260507184503 | 12 | 192 | 0.0 | 0.0 | 0.00 | 1.78 | 0.66 | 68 | 1003.2 |
| 20260507183057 | 13 | 187 | 0.0 | 0.0 | 0.00 | 1.78 | 0.66 | 68 | 1003.4 |
| 20260507181552 | 13 | 203 | 0.0 | 0.0 | 0.00 | 1.78 | 0.66 | 70 | 1003.6 |
| 20260507180051 | 12 | 185 | 0.0 | 0.0 | 0.00 | 1.78 | 0.66 | 70 | 1003.7 |
| 20260507174548 | 12 | 219 | 0.0 | 0.0 | 0.00 | 1.78 | 0.66 | 70 | 1003.7 |
| 20260507173039 | 13 | 219 | 0.0 | 0.0 | 0.00 | 1.78 | 0.66 | 61 | 1003.7 |
| 20260507171540 | 13 | 258 | 0.0 | 0.0 | 0.00 | 1.78 | 0.66 | 63 | 1003.8 |
| 20260507170038 | 13 | 210 | 0.0 | 0.0 | 0.00 | 1.78 | 0.66 | 65 | 1003.9 |
| 20260507164528 | 13 | 186 | 0.0 | 0.0 | 0.00 | 1.78 | 0.66 | 67 | 1004.0 |
| 20260507163023 | 12 | 214 | 0.0 | 0.0 | 0.00 | 1.78 | 0.66 | 71 | 1004.0 |
| 20260507161520 | 13 | 183 | 0.0 | 0.0 | 0.00 | 1.78 | 0.66 | 65 | 1004.2 |
| 20260507160019 | 13 | 176 | 0.0 | 0.0 | 0.00 | 1.78 | 0.66 | 66 | 1004.6 |
| 20260507154521 | 13 | 192 | 0.0 | 0.0 | 0.00 | 1.78 | 0.66 | 69 | 1004.7 |
| 20260507153010 | 13 | 257 | 0.0 | 0.0 | 0.00 | 1.78 | 0.66 | 61 | 1004.8 |
| 20260507151501 | 13 | 267 | 0.0 | 0.0 | 0.00 | 1.78 | 0.66 | 64 | 1005.0 |
| 20260507150059 | 12 | 229 | 0.0 | 0.0 | 0.00 | 1.78 | 0.66 | 68 | 1004.9 |
| 20260507144554 | 12 | 221 | 0.0 | 0.0 | 0.00 | 1.78 | 0.66 | 70 | 1005.2 |
| 20260507143053 | 12 | 255 | 0.0 | 0.0 | 0.00 | 1.78 | 0.66 | 70 | 1005.2 |
| 20260507141544 | 12 | 349 | 0.0 | 0.0 | 0.00 | 1.78 | 0.66 | 69 | 1005.4 |
| 20260507140040 | 11 | 353 | 0.0 | 0.0 | 0.00 | 1.78 | 0.66 | 70 | 1005.5 |
| 20260507134537 | 11 | 3 | 0.0 | 0.0 | 0.00 | 1.78 | 0.66 | 70 | 1005.5 |
| 20260507133033 | 11 | 345 | 0.0 | 0.0 | 0.00 | 1.78 | 0.66 | 71 | 1005.7 |
| 20260507131525 | 11 | 39 | 0.0 | 0.0 | 0.00 | 1.78 | 0.66 | 72 | 1005.7 |
| 20260507130032 | 10 | 14 | 0.0 | 0.0 | 0.00 | 1.78 | 0.66 | 74 | 1006.0 |
| 20260507124521 | 10 | 343 | 0.0 | 0.0 | 0.00 | 1.78 | 0.66 | 74 | 1006.0 |
| 20260507123012 | 10 | 345 | 0.0 | 0.0 | 0.00 | 1.78 | 0.66 | 76 | 1005.9 |
| 20260507121509 | 9 | 15 | 0.0 | 0.0 | 0.00 | 1.78 | 0.66 | 76 | 1006.0 |
| 20260507120008 | 8 | 345 | 0.0 | 0.0 | 0.00 | 1.78 | 0.66 | 73 | 1005.7 |
| 20260507114503 | 8 | 11 | 0.0 | 0.0 | 0.00 | 1.78 | 0.66 | 63 | 1006.0 |
| 20260507113101 | 8 | 1 | 0.0 | 0.0 | 0.00 | 1.78 | 0.66 | 60 | 1006.1 |
| 20260507111556 | 8 | 20 | 0.0 | 0.0 | 0.00 | 1.78 | 0.66 | 59 | 1006.4 |
| 20260507110052 | 8 | 6 | 0.0 | 0.0 | 0.00 | 1.78 | 0.66 | 53 | 1006.3 |
| 20260507104547 | 8 | 354 | 0.0 | 0.0 | 0.00 | 1.78 | 0.66 | 51 | 1006.1 |
| 20260507103042 | 8 | 340 | 0.0 | 0.0 | 0.00 | 1.78 | 0.66 | 45 | 1006.2 |
| 20260507101538 | -17 | 0.0 | 0.0 | 0.00 | 1.78 | 0.66 | 1006.1 | ||
| 20260507100035 | -17 | 0.0 | 0.0 | 0.00 | 1.78 | 0.66 | 1005.2 | ||
| 20260507094529 | -17 | 0.0 | 0.0 | 0.00 | 1.78 | 0.66 | 1005.8 | ||
| 20260507093025 | -17 | 0.0 | 0.0 | 0.00 | 1.78 | 0.66 | 1005.0 | ||
| 20260507091526 | -17 | 0.0 | 0.0 | 0.00 | 1.78 | 0.66 | 1005.6 | ||
| 20260507090020 | -17 | 0.0 | 0.0 | 0.00 | 1.78 | 0.66 | 1005.5 | ||
| 20260507084511 | -17 | 0.0 | 0.0 | 0.00 | 1.78 | 0.66 | 1005.4 | ||
| 20260507083007 | -17 | 0.0 | 0.0 | 0.00 | 1.78 | 0.66 | 1005.2 | ||
| 20260507081503 | -17 | 0.0 | 0.0 | 0.00 | 1.78 | 0.66 | 1005.4 | ||
| 20260507080115 | -17 | 0.0 | 0.0 | 0.00 | 1.78 | 0.66 | 1005.0 | ||
| 20260507074555 | -17 | 0.0 | 0.0 | 0.00 | 1.78 | 0.66 | 1005.1 | ||
| 20260507073050 | -17 | 0.0 | 0.0 | 0.00 | 1.78 | 0.66 | 1004.9 |